EW8410 Weather Reports


time (UTC)temp
F
wind
direction
speed
knots
gust
knots
rain 1hr
in
rain 24hr
in
rain mn
in
humidity
%
barometer
mb
20260507000901 55 183 2.6 9.6 0.00 0.23 0.23 93 1006.2
20260507000007 54 289 5.2 9.6 0.00 0.23 0.23 93 1006.5
20260507000002 55 172 2.6 9.6 0.00 0.23 0.23 93 1006.3
20260506235422 55 173 1.7 8.7 0.00 0.23 0.23 93 1006.3
20260506234507 54 304 1.7 10.4 0.01 0.23 0.23 93 1006.5
20260506234502 55 190 2.6 10.4 0.01 0.23 0.23 93 1006.2
20260506233623 55 180 2.6 9.6 0.02 0.23 0.23 93 1006.1
20260506233003 55 85 1.7 9.6 0.02 0.23 0.23 94 1006.4
20260506232722 55 177 3.5 13.0 0.03 0.23 0.23 94 1006.0
20260506231802 55 200 4.3 13.9 0.05 0.23 0.23 94 1006.1
20260506231601 54 153 5.2 14.8 0.05 0.23 0.23 94 1006.4
20260506230902 55 175 1.7 8.7 0.06 0.23 0.23 94 1006.1
20260506230008 54 256 2.6 8.7 0.09 0.23 0.23 94 1006.3
20260506230002 55 173 2.6 9.6 0.09 0.23 0.23 94 1006.1
20260506225401 55 169 2.6 8.7 0.09 0.23 0.23 94 1006.0
20260506224506 54 15 2.6 12.2 0.11 0.22 0.22 94 1006.3
20260506224502 55 176 2.6 12.2 0.11 0.22 0.22 94 1006.0
20260506223602 55 181 2.6 12.2 0.11 0.21 0.21 94 1006.0
20260506223008 54 143 1.7 9.6 0.12 0.21 0.21 93 1006.2
20260506222702 54 176 2.6 8.7 0.11 0.20 0.20 93 1006.1
20260506221802 54 184 3.5 15.6 0.10 0.18 0.18 92 1006.2
20260506221506 54 146 3.5 14.8 0.10 0.18 0.18 92 1006.5
20260506220902 55 177 2.6 7.0 0.09 0.17 0.17 92 1006.2
20260506220005 54 135 3.5 10.4 0.07 0.14 0.14 92 1006.6
20260506220002 55 174 3.5 11.3 0.07 0.14 0.14 92 1006.3
20260506215402 55 172 3.5 11.3 0.07 0.14 0.14 92 1006.5
20260506214507 55 154 2.6 7.8 0.04 0.11 0.11 92 1007.0
20260506214502 55 168 2.6 8.7 0.05 0.11 0.11 92 1006.6
20260506213623 55 180 2.6 10.4 0.04 0.10 0.10 92 1006.6
20260506213011 55 188 1.7 8.7 0.04 0.09 0.09 91 1006.8
20260506212702 55 170 1.7 9.6 0.04 0.09 0.09 91 1006.7
20260506211802 55 164 1.7 9.6 0.04 0.08 0.08 92 1006.7
20260506211603 55 187 0.9 9.6 0.04 0.08 0.08 92 1006.9
20260506210902 55 173 2.6 9.6 0.04 0.08 0.08 92 1006.8
20260506210008 54 124 1.7 5.2 0.03 0.07 0.07 92 1007.1
20260506210002 55 163 1.7 4.3 0.03 0.07 0.07 92 1006.9
20260506205423 55 155 1.7 7.0 0.03 0.07 0.07 91 1006.8
20260506204523 55 155 1.7 7.0 0.03 0.06 0.06 91 1006.9
20260506204504 54 75 1.7 6.1 0.03 0.06 0.06 91 1007.2
20260506203602 55 156 1.7 12.2 0.03 0.06 0.06 90 1007.1
20260506203009 54 324 1.7 12.2 0.03 0.05 0.05 90 1007.4
20260506202702 55 166 3.5 12.2 0.04 0.05 0.05 89 1007.1
20260506201802 56 184 3.5 8.7 0.04 0.04 0.04 88 1007.2
20260506201510 55 251 3.5 8.7 0.04 0.04 0.04 88 1007.5
20260506200902 56 165 2.6 8.7 0.04 0.04 0.04 88 1007.3
20260506200009 56 147 0.9 8.7 0.04 0.04 0.04 88 1007.7
20260506200002 57 186 2.6 8.7 0.04 0.04 0.04 88 1007.4
20260506195402 57 184 2.6 10.4 0.04 0.04 0.04 88 1007.4
20260506194506 57 214 1.7 10.4 0.03 0.03 0.03 89 1007.8
20260506194502 57 162 2.6 13.9 0.03 0.03 0.03 89 1007.5
20260506193602 57 177 3.5 13.9 0.03 0.03 0.03 87 1007.6
20260506193013 57 218 1.7 13.0 0.02 0.02 0.02 86 1007.9
20260506192723 58 163 4.3 14.8 0.01 0.01 0.01 85 1007.7
20260506191802 59 171 3.5 12.2 0.00 0.00 0.00 82 1007.8
20260506191510 59 167 2.6 8.7 0.00 0.00 0.00 82 1008.1
20260506190902 60 191 3.5 13.9 0.00 0.00 0.00 80 1008.0
20260506190023 60 162 3.5 12.2 0.00 0.00 0.00 79 1007.9
20260506190002 59 115 2.6 9.6 0.00 0.00 0.00 79 1008.3
20260506185402 60 177 4.3 14.8 0.00 0.00 0.00 79 1007.9
20260506184510 59 211 3.5 17.4 0.00 0.00 0.00 79 1008.3
20260506184502 60 167 3.5 17.4 0.00 0.00 0.00 79 1008.1
20260506183623 60 184 4.3 17.4 0.00 0.00 0.00 79 1008.1
20260506183008 60 213 3.5 8.7 0.00 0.00 0.00 78 1008.4
20260506182702 60 175 4.3 13.0 0.00 0.00 0.00 78 1008.0
20260506181803 61 184 3.5 13.0 0.00 0.00 0.00 77 1008.2
20260506181502 60 162 2.6 9.6 0.00 0.00 0.00 78 1008.7
20260506180902 61 167 4.3 14.8 0.00 0.00 0.00 78 1008.5
20260506180010 60 240 6.1 15.6 0.00 0.00 0.00 78 1008.7
20260506180003 60 175 5.2 18.2 0.00 0.00 0.00 78 1008.4
20260506175403 60 178 5.2 18.2 0.00 0.00 0.00 78 1008.6
20260506174506 60 183 7.0 15.6 0.00 0.00 0.00 77 1009.0
20260506174503 61 173 6.1 15.6 0.00 0.00 0.00 77 1008.9
20260506173603 61 173 4.3 13.9 0.00 0.00 0.00 77 1008.9
20260506173004 61 194 6.1 10.4 0.00 0.00 0.00 76 1009.6
20260506172703 61 191 4.3 13.9 0.00 0.00 0.00 76 1009.3
20260506171803 62 174 3.5 14.8 0.00 0.00 0.00 75 1009.3
20260506171602 62 205 2.6 14.8 0.00 0.00 0.00 75 1009.5
20260506170902 63 166 4.3 14.8 0.00 0.00 0.00 75 1009.1
20260506170007 63 104 4.3 16.5 0.00 0.00 0.00 74 1009.4
20260506170003 63 165 5.2 18.2 0.00 0.00 0.00 74 1009.3
20260506165403 63 189 5.2 18.2 0.00 0.00 0.00 75 1009.2
20260506164524 63 185 5.2 14.8 0.00 0.00 0.00 75 1009.5
20260506164507 62 119 4.3 15.6 0.00 0.00 0.00 75 1009.7
20260506163603 62 174 3.5 15.6 0.00 0.00 0.00 76 1009.6
20260506163005 61 27 0.9 13.9 0.00 0.00 0.00 78 1009.9
20260506162703 62 167 3.5 13.9 0.00 0.00 0.00 77 1009.6
20260506161803 61 168 4.3 18.2 0.00 0.00 0.00 77 1009.8
20260506161510 61 51 3.5 16.5 0.00 0.00 0.00 77 1010.0
20260506160924 62 173 3.5 13.9 0.00 0.00 0.00 77 1010.0
20260506160012 62 223 1.7 17.4 0.00 0.00 0.00 76 1010.3
20260506160003 62 177 4.3 17.4 0.00 0.00 0.00 76 1010.0
20260506155403 63 175 4.3 17.4 0.00 0.00 0.00 74 1010.2
20260506154607 63 200 5.2 18.2 0.00 0.00 0.00 74 1010.4
20260506154503 64 191 5.2 18.2 0.00 0.00 0.00 74 1010.1
20260506153621 64 175 4.3 15.6 0.00 0.00 0.00 73 1010.2
20260506153100 64 94 4.3 11.3 0.00 0.00 0.00 73 1010.4
20260506152700 64 184 4.3 11.3 0.00 0.00 0.00 73 1010.1
20260506151821 64 170 4.3 16.5 0.00 0.00 0.00 75 1010.2
20260506151505 63 132 2.6 16.5 0.00 0.00 0.00 76 1010.5
20260506150900 63 187 5.2 16.5 0.00 0.00 0.00 75 1010.2
20260506150000 63 185 5.2 16.5 0.00 0.00 0.00 78 1010.5
20260506145400 62 171 5.2 16.5 0.00 0.00 0.00 75 1010.6
20260506144521 62 180 5.2 14.8 0.00 0.00 0.00 76 1010.3
20260506144508 62 255 4.3 13.0 0.00 0.00 0.00 76 1010.5
20260506143621 62 166 5.2 13.9 0.00 0.00 0.00 76 1010.3
20260506143007 61 136 3.5 18.2 0.00 0.00 0.00 79 1010.6
20260506142700 61 180 4.3 19.1 0.00 0.00 0.00 78 1010.5
20260506141800 61 196 4.3 15.6 0.00 0.00 0.00 78 1010.4
20260506141600 60 202 2.6 13.0 0.00 0.00 0.00 77 1010.6
20260506140900 61 184 4.3 15.6 0.00 0.00 0.00 77 1010.2
20260506140007 61 82 4.3 15.6 0.00 0.00 0.00 78 1010.3
20260506140000 62 185 4.3 15.6 0.00 0.00 0.00 78 1010.0
20260506135400 62 187 4.3 13.9 0.00 0.00 0.00 77 1010.1
20260506134521 62 190 3.5 13.9 0.00 0.00 0.00 77 1010.2
20260506134507 62 221 1.7 13.9 0.00 0.00 0.00 77 1010.4
20260506133600 62 161 3.5 13.9 0.00 0.00 0.00 78 1010.3
20260506133002 61 161 2.6 13.9 0.00 0.00 0.00 78 1010.7
20260506132721 61 182 3.5 14.8 0.00 0.00 0.00 79 1010.5
20260506131800 61 156 4.3 14.8 0.00 0.00 0.00 80 1010.6
20260506131502 60 138 4.3 13.0 0.00 0.00 0.00 80 1010.6
20260506130900 60 161 2.6 14.8 0.00 0.00 0.00 81 1010.5
20260506130106 59 200 2.6 14.8 0.00 0.00 0.00 80 1010.6
20260506130000 60 170 4.3 14.8 0.00 0.00 0.00 81 1010.5
20260506125400 60 181 4.3 14.8 0.00 0.00 0.00 81 1010.5
20260506124521 60 175 4.3 13.9 0.00 0.00 0.00 81 1010.5
20260506124505 59 196 3.5 13.0 0.00 0.00 0.00 81 1010.7
20260506123600 59 183 3.5 13.0 0.00 0.00 0.00 82 1010.3
20260506123002 59 188 2.6 13.0 0.00 0.00 0.00 82 1010.6
20260506122701 59 196 2.6 13.0 0.00 0.00 0.00 83 1010.3
20260506121800 58 188 1.7 9.6 0.00 0.00 0.00 84 1010.6
20260506121504 58 140 2.6 9.6 0.00 0.00 0.00 83 1010.8
20260506120901 58 179 4.3 14.8 0.00 0.00 0.00 83 1010.6
20260506120111 58 217 3.5 13.0 0.00 0.00 0.00 84 1010.8
20260506120022 58 179 4.3 13.0 0.00 0.00 0.00 84 1010.6
20260506115401 58 192 4.3 13.0 0.00 0.00 0.00 85 1010.5
20260506114508 57 181 2.6 9.6 0.00 0.00 0.00 86 1011.0
20260506114501 58 173 2.6 9.6 0.00 0.00 0.00 86 1010.7
20260506113601 57 181 4.3 11.3 0.00 0.00 0.00 86 1010.9
20260506113002 56 221 3.5 11.3 0.00 0.00 0.00 86 1011.1
20260506112701 57 176 4.3 11.3 0.00 0.00 0.00 87 1010.8
20260506111822 56 171 3.5 9.6 0.00 0.00 0.00 87 1010.9
20260506111506 56 189 4.3 10.4 0.00 0.00 0.00 87 1011.1
20260506110922 56 183 2.6 10.4 0.00 0.00 0.00 87 1010.9
20260506110022 56 194 2.6 10.4 0.00 0.00 0.00 87 1010.7
20260506110005 56 177 3.5 9.6 0.00 0.00 0.00 87 1011.0
20260506105401 56 211 2.6 14.8 0.00 0.00 0.00 87 1010.7
20260506104559 56 170 2.6 14.8 0.00 0.00 0.00 87 1010.8
20260506104501 56 166 3.5 13.0 0.00 0.00 0.00 87 1010.6
20260506103601 56 177 2.6 8.7 0.00 0.00 0.00 88 1010.6
20260506103006 56 85 2.6 8.7 0.00 0.00 0.00 88 1010.9
20260506102701 56 183 2.6 11.3 0.00 0.00 0.00 88 1010.5
20260506101822 56 158 2.6 11.3 0.00 0.00 0.00 88 1010.5
20260506101502 56 148 2.6 13.9 0.00 0.00 0.00 88 1010.9
20260506100901 56 161 3.5 14.8 0.00 0.00 0.00 88 1010.6
20260506100008 56 107 1.7 8.7 0.00 0.00 0.00 88 1010.7
20260506100001 56 172 2.6 12.2 0.00 0.00 0.00 88 1010.4
20260506095401 56 181 3.5 12.2 0.00 0.00 0.00 88 1010.4
20260506094505 55 167 1.7 9.6 0.00 0.00 0.00 89 1010.6
20260506094501 56 173 3.5 10.4 0.00 0.00 0.00 89 1010.3
20260506093601 56 177 2.6 11.3 0.00 0.00 0.00 89 1010.3
20260506093113 55 76 2.6 11.3 0.00 0.00 0.00 89 1010.7
20260506092701 56 180 2.6 8.7 0.00 0.00 0.00 89 1010.5
20260506091801 56 180 2.6 13.0 0.00 0.00 0.00 89 1010.5
20260506091508 55 300 1.7 13.0 0.00 0.00 0.00 89 1010.7
20260506090901 56 190 2.6 11.3 0.00 0.00 0.00 89 1010.5
20260506090004 55 186 2.6 11.3 0.00 0.00 0.00 89 1010.8
20260506090001 56 170 3.5 11.3 0.00 0.00 0.00 89 1010.5
20260506085401 56 167 2.6 12.2 0.00 0.00 0.00 89 1010.5
20260506084508 56 119 2.6 11.3 0.00 0.00 0.00 89 1010.9
20260506084501 56 179 3.5 13.9 0.00 0.00 0.00 89 1010.6
20260506083601 56 167 3.5 13.0 0.00 0.00 0.00 89 1010.7
20260506083101 56 193 1.7 13.0 0.00 0.00 0.00 89 1011.0
20260506082722 56 176 2.6 13.0 0.00 0.00 0.00 89 1010.8
20260506081801 56 177 2.6 10.4 0.00 0.00 0.00 88 1010.8
20260506081508 56 186 0.9 9.6 0.00 0.00 0.00 88 1011.1
20260506080922 56 179 3.5 12.2 0.00 0.00 0.00 88 1010.9
20260506073009 56 274 3.5 9.6 0.00 0.00 0.00 88 1011.1
20260506072701 56 160 3.5 8.7 0.00 0.00 0.00 88 1010.7
20260506071801 56 161 2.6 8.7 0.00 0.00 0.00 88 1010.7
20260506071507 56 165 0.9 8.7 0.00 0.00 0.00 87 1011.0
20260506070901 56 176 2.6 9.6 0.00 0.00 0.00 88 1010.6
20260506061801 56 169 3.5 13.9 0.00 0.00 0.00 87 1010.6
20260506061501 55 223 3.5 10.4 0.00 0.00 0.00 87 1011.0
20260506060902 56 174 1.7 11.3 0.00 0.00 0.00 86 1010.8
20260506050902 56 174 2.6 13.0 0.00 0.00 0.00 84 1011.0
20260506044523 57 180 2.6 10.4 0.00 0.00 0.00 84 1011.2
20260506044504 56 207 2.6 9.6 0.00 0.00 0.00 84 1011.5
20260506043602 57 164 3.5 11.3 0.00 0.00 0.00 84 1011.0
20260506043004 56 258 3.5 8.7 0.00 0.00 0.00 84 1011.4
20260506042702 57 183 3.5 10.4 0.00 0.00 0.00 84 1011.2
20260506041802 56 176 3.5 11.3 0.00 0.00 0.00 84 1011.1
20260506041610 56 122 3.5 10.4 0.00 0.00 0.00 84 1011.4
20260506040902 56 164 3.5 11.3 0.00 0.00 0.00 84 1011.1
20260506040023 56 162 3.5 9.6 0.00 0.00 0.00 84 1011.1
20260506040005 56 75 3.5 10.4 0.00 0.00 0.00 84 1011.3
20260506035402 56 166 2.6 13.0 0.00 0.00 0.00 84 1011.0
20260506034504 56 79 2.6 13.0 0.00 0.00 0.00 83 1011.2
20260506034502 56 183 3.5 13.9 0.00 0.00 0.00 83 1011.0
20260506033602 56 173 3.5 9.6 0.00 0.00 0.00 83 1011.0
20260506033002 56 201 3.5 9.6 0.00 0.00 0.00 83 1011.2
20260506032702 56 174 2.6 8.7 0.00 0.00 0.00 83 1010.9
20260506031802 56 181 4.3 13.0 0.00 0.00 0.00 82 1010.8
20260506031510 56 163 4.3 13.0 0.00 0.00 0.00 82 1011.1
20260506030902 56 173 2.6 10.4 0.00 0.00 0.00 82 1010.8
20260506030007 56 98 3.5 14.8 0.00 0.00 0.00 81 1011.1
20260506030002 56 160 2.6 16.5 0.00 0.00 0.00 81 1010.8
20260506025402 56 157 1.7 7.0 0.00 0.00 0.00 81 1010.8
20260506024504 56 261 0.9 10.4 0.00 0.00 0.00 80 1011.1
20260506024502 56 174 2.6 10.4 0.00 0.00 0.00 80 1010.8
20260506023623 57 192 2.6 10.4 0.00 0.00 0.00 80 1010.8
20260506023002 56 191 1.7 9.6 0.00 0.00 0.00 79 1011.0
20260506022723 57 175 3.5 10.4 0.00 0.00 0.00 79 1010.8
20260506021823 57 162 2.6 12.2 0.00 0.00 0.00 78 1010.9
20260506021508 57 163 1.7 10.4 0.00 0.00 0.00 78 1011.1
20260506020923 57 171 2.6 16.5 0.00 0.00 0.00 77 1010.7
20260506020003 57 76 2.6 16.5 0.00 0.00 0.00 77 1011.1
20260506015402 57 182 3.5 16.5 0.00 0.00 0.00 77 1010.8
20260506014602 57 136 4.3 13.0 0.00 0.00 0.00 76 1011.0
20260506014502 57 168 3.5 14.8 0.00 0.00 0.00 76 1010.6
20260506013602 57 188 3.5 14.8 0.00 0.00 0.00 76 1010.5
20260506013007 57 178 1.7 8.7 0.00 0.00 0.00 76 1010.8
20260506012702 57 174 2.6 7.8 0.00 0.00 0.00 75 1010.4
20260506011802 57 180 3.5 12.2 0.00 0.00 0.00 75 1010.4
20260506011506 57 310 1.7 10.4 0.00 0.00 0.00 75 1010.6
20260506010902 58 190 3.5 12.2 0.00 0.00 0.00 75 1010.4
20260506010009 57 265 1.7 12.2 0.00 0.00 0.00 76 1010.4
20260506010003 58 186 2.6 13.9 0.00 0.00 0.00 76 1010.1
20260506005402 57 185 2.6 13.9 0.00 0.00 0.00 76 1010.1
20260506004524 57 174 3.5 13.9 0.00 0.00 0.00 76 1010.0
20260506004519 57 165 1.7 13.9 0.00 0.00 0.00 76 1010.3
20260506003603 57 185 3.5 15.6 0.00 0.00 0.00 77 1009.9
20260506003005 57 199 4.3 11.3 0.00 0.00 0.00 77 1010.2
20260506002703 57 166 2.6 11.3 0.00 0.00 0.00 77 1009.8
20260506001803 57 197 2.6 9.6 0.00 0.00 0.00 77 1009.7
20260506001503 56 128 3.5 9.6 0.00 0.00 0.00 77 1009.9